This is the latest recevied weather packets stored in our database for station/object YM2KRB-11. If no packets are shown the sender has not sent any weather packets the latest 10 day(s).
| Time | Temp. | Humidity | Pressure | Rain* | Wind** | Luminosity | Snow |
|---|---|---|---|---|---|---|---|
| 1777485515 | 13.33° C | 41% | 943.5 hPa | - | - | - | - |
| 1777484314 | 13.89° C | 40% | 943.2 hPa | - | - | - | - |
| 1777483113 | 14.44° C | 39% | 943 hPa | - | - | - | - |
| 1777481913 | 14.44° C | 39% | 942.8 hPa | - | - | - | - |
| 1777480712 | 15° C | 38% | 942.7 hPa | - | - | - | - |
| 1777479511 | 16.11° C | 36% | 942.5 hPa | - | - | - | - |
| 1777478310 | 16.11° C | 33% | 942.2 hPa | - | - | - | - |
| 1777477109 | 18.89° C | 30% | 942.3 hPa | - | - | - | - |
| 1777475909 | 20.56° C | 29% | 942.3 hPa | - | - | - | - |
| 1777474708 | 22.78° C | 27% | 942.3 hPa | - | - | - | - |
| 1777473507 | 22.78° C | 24% | 942.1 hPa | - | - | - | - |
| 1777472306 | 22.78° C | 24% | 942 hPa | - | - | - | - |
| 1777471105 | 22.22° C | 26% | 942 hPa | - | - | - | - |
| 1777469905 | 26.11° C | 25% | 942.1 hPa | - | - | - | - |
| 1777468704 | 22.78° C | 25% | 941.9 hPa | - | - | - | - |
| 1777467503 | 24.44° C | 25% | 941.9 hPa | - | - | - | - |
| 1777466302 | 24.44° C | 22% | 941.9 hPa | - | - | - | - |
| 1777465102 | 26.67° C | 19% | 942 hPa | - | - | - | - |
| 1777463901 | 24.44° C | 20% | 942.1 hPa | - | - | - | - |
| 1777462700 | 26.11° C | 20% | 942.2 hPa | - | - | - | - |
| 1777461499 | 24.44° C | 22% | 942.2 hPa | - | - | - | - |
| 1777460298 | 25.56° C | 21% | 942.3 hPa | - | - | - | - |
| 1777459098 | 25.56° C | 20% | 942.3 hPa | - | - | - | - |
| 1777457897 | 24.44° C | 20% | 942.4 hPa | - | - | - | - |
| 1777456696 | 27.78° C | 20% | 942.5 hPa | - | - | - | - |
* Rain since midnight (hover to see other rain measurements)
** Current wind speed in m/s (hover to see current wind gust speed)